Time,TemperatureF,DewpointF,PressureIn,WindDirection,WindDirectionDegrees,WindSpeedMPH,WindSpeedGustMPH,Humidity,HourlyPrecipIn,Conditions,Clouds,dailyrainin,SolarRadiationWatts/m^2,SoftwareType,DateUTC
2013-12-18 00:10:00,46.9,42.0,29.60,SE,124,9.0,-999.0,83,-99.99,,,0.00,0,weatherlink.com 1.10,2013-12-18 00:10:00,
2013-12-18 00:25:00,46.6,42.0,29.59,South,182,8.0,-999.0,84,-99.99,,,0.00,0,weatherlink.com 1.10,2013-12-18 00:25:00,
2013-12-18 00:40:00,46.1,43.0,29.58,SSW,194,10.0,-999.0,87,-99.99,,,0.02,0,weatherlink.com 1.10,2013-12-18 00:40:00,
2013-12-18 00:55:00,46.1,43.0,29.57,SSE,150,15.0,-999.0,87,-99.99,,,0.02,0,weatherlink.com 1.10,2013-12-18 00:55:00,
2013-12-18 01:10:00,46.1,43.0,29.56,South,171,14.0,-999.0,87,-99.99,,,0.02,0,weatherlink.com 1.10,2013-12-18 01:10:00,
2013-12-18 01:25:00,45.8,43.0,29.55,South,177,13.0,-999.0,89,-99.99,,,0.03,0,weatherlink.com 1.10,2013-12-18 01:25:00,
2013-12-18 01:40:00,45.6,43.0,29.53,SSE,162,9.0,-999.0,90,-99.99,,,0.00,0,weatherlink.com 1.10,2013-12-18 01:40:00,
2013-12-18 01:55:00,45.4,43.0,29.53,SSE,153,13.0,-999.0,91,-99.99,,,0.00,0,weatherlink.com 1.10,2013-12-18 01:55:00,
2013-12-18 02:10:00,45.6,44.0,29.52,SSW,196,11.0,-999.0,92,-99.99,,,0.01,0,weatherlink.com 1.10,2013-12-18 02:10:00,
2013-12-18 02:25:00,45.6,44.0,29.52,South,187,7.0,-999.0,92,-99.99,,,0.01,0,weatherlink.com 1.10,2013-12-18 02:25:00,
2013-12-18 02:40:00,45.9,44.0,29.51,SSE,167,6.0,-999.0,92,-99.99,,,0.01,0,weatherlink.com 1.10,2013-12-18 02:40:00,
2013-12-18 02:55:00,46.1,44.0,29.50,South,184,11.0,-999.0,93,-99.99,,,0.02,0,weatherlink.com 1.10,2013-12-18 02:55:00,
2013-12-18 03:10:00,46.1,45.0,29.49,SE,146,10.0,-999.0,94,-99.99,,,0.02,0,weatherlink.com 1.10,2013-12-18 03:10:00,
2013-12-18 03:25:00,46.2,45.0,29.48,South,191,9.0,-999.0,94,-99.99,,,0.04,0,weatherlink.com 1.10,2013-12-18 03:25:00,
2013-12-18 03:40:00,46.5,45.0,29.47,SSW,202,4.0,-999.0,95,-99.99,,,0.04,0,weatherlink.com 1.10,2013-12-18 03:40:00,
2013-12-18 03:55:00,47.0,46.0,29.46,South,181,12.0,-999.0,95,-99.99,,,0.06,0,weatherlink.com 1.10,2013-12-18 03:55:00,
2013-12-18 04:10:00,47.4,46.0,29.45,South,171,6.0,-999.0,95,-99.99,,,0.08,0,weatherlink.com 1.10,2013-12-18 04:10:00,
2013-12-18 04:25:00,47.7,46.0,29.45,South,189,16.0,-999.0,95,-99.99,,,0.09,0,weatherlink.com 1.10,2013-12-18 04:25:00,
2013-12-18 04:40:00,47.9,47.0,29.45,SSE,152,11.0,-999.0,95,-99.99,,,0.09,0,weatherlink.com 1.10,2013-12-18 04:40:00,
2013-12-18 04:55:00,48.3,47.0,29.44,South,171,20.0,-999.0,95,-99.99,,,0.10,0,weatherlink.com 1.10,2013-12-18 04:55:00,
2013-12-18 05:11:00,48.7,47.0,29.43,South,190,5.0,-999.0,94,-99.99,,,0.10,0,weatherlink.com 1.10,2013-12-18 05:11:00,
2013-12-18 05:26:00,49.0,47.0,29.42,SSW,206,6.0,-999.0,94,-99.99,,,0.10,0,weatherlink.com 1.10,2013-12-18 05:26:00,
2013-12-18 05:41:00,49.1,48.0,29.42,SSE,167,11.0,-999.0,94,-99.99,,,0.11,0,weatherlink.com 1.10,2013-12-18 05:41:00,
2013-12-18 05:56:00,49.2,48.0,29.41,South,182,12.0,-999.0,94,-99.99,,,0.14,0,weatherlink.com 1.10,2013-12-18 05:56:00,
2013-12-18 06:11:00,49.2,48.0,29.41,SSW,198,12.0,-999.0,94,-99.99,,,0.15,0,weatherlink.com 1.10,2013-12-18 06:11:00,
2013-12-18 06:26:00,49.4,48.0,29.41,SSW,196,16.0,-999.0,94,-99.99,,,0.17,0,weatherlink.com 1.10,2013-12-18 06:26:00,
2013-12-18 06:41:00,49.5,48.0,29.39,South,175,10.0,-999.0,94,-99.99,,,0.17,0,weatherlink.com 1.10,2013-12-18 06:41:00,
2013-12-18 06:56:00,49.7,48.0,29.39,SW,227,8.0,-999.0,94,-99.99,,,0.18,0,weatherlink.com 1.10,2013-12-18 06:56:00,
2013-12-18 07:11:00,49.8,48.0,29.39,SSE,150,14.0,-999.0,94,-99.99,,,0.18,0,weatherlink.com 1.10,2013-12-18 07:11:00,
2013-12-18 07:26:00,49.9,48.0,29.39,SSW,199,10.0,-999.0,94,-99.99,,,0.18,0,weatherlink.com 1.10,2013-12-18 07:26:00,
2013-12-18 07:41:00,50.1,49.0,29.39,SSE,168,8.0,-999.0,94,-99.99,,,0.18,0,weatherlink.com 1.10,2013-12-18 07:41:00,
2013-12-18 07:56:00,50.2,49.0,29.39,South,174,14.0,-999.0,94,-99.99,,,0.18,0,weatherlink.com 1.10,2013-12-18 07:56:00,
2013-12-18 08:11:00,50.3,49.0,29.39,SSW,204,8.0,-999.0,94,-99.99,,,0.18,0,weatherlink.com 1.10,2013-12-18 08:11:00,
2013-12-18 08:26:00,50.4,49.0,29.38,SW,217,3.0,-999.0,94,-99.99,,,0.18,0,weatherlink.com 1.10,2013-12-18 08:26:00,
2013-12-18 08:41:00,50.4,49.0,29.37,South,173,11.0,-999.0,94,-99.99,,,0.18,0,weatherlink.com 1.10,2013-12-18 08:41:00,
2013-12-18 08:56:00,50.5,49.0,29.37,WSW,237,14.0,-999.0,94,-99.99,,,0.18,0,weatherlink.com 1.10,2013-12-18 08:56:00,
2013-12-18 09:11:00,50.5,49.0,29.36,SSW,205,7.0,-999.0,94,-99.99,,,0.18,5,weatherlink.com 1.10,2013-12-18 09:11:00,
2013-12-18 09:26:00,50.5,49.0,29.36,South,175,8.0,-999.0,94,-99.99,,,0.18,9,weatherlink.com 1.10,2013-12-18 09:26:00,
2013-12-18 09:41:00,50.5,49.0,29.35,SSE,161,12.0,-999.0,94,-99.99,,,0.18,14,weatherlink.com 1.10,2013-12-18 09:41:00,
2013-12-18 09:56:00,50.4,49.0,29.34,SSW,205,9.0,-999.0,94,-99.99,,,0.20,28,weatherlink.com 1.10,2013-12-18 09:56:00,
2013-12-18 10:11:00,50.4,49.0,29.34,South,181,12.0,-999.0,94,-99.99,,,0.20,37,weatherlink.com 1.10,2013-12-18 10:11:00,
2013-12-18 10:26:00,50.4,49.0,29.32,SSW,204,10.0,-999.0,95,-99.99,,,0.20,51,weatherlink.com 1.10,2013-12-18 10:26:00,
2013-12-18 10:41:00,50.6,49.0,29.30,SSW,211,6.0,-999.0,95,-99.99,,,0.20,49,weatherlink.com 1.10,2013-12-18 10:41:00,
2013-12-18 10:56:00,50.6,49.0,29.31,SSE,152,7.0,-999.0,95,-99.99,,,0.20,30,weatherlink.com 1.10,2013-12-18 10:56:00,
2013-12-18 11:11:00,50.6,49.0,29.30,South,173,11.0,-999.0,95,-99.99,,,0.20,39,weatherlink.com 1.10,2013-12-18 11:11:00,
2013-12-18 11:26:00,50.6,49.0,29.28,South,177,8.0,-999.0,94,-99.99,,,0.20,19,weatherlink.com 1.10,2013-12-18 11:26:00,
2013-12-18 11:41:00,50.7,49.0,29.26,ESE,119,6.0,-999.0,94,-99.99,,,0.20,30,weatherlink.com 1.10,2013-12-18 11:41:00,
2013-12-18 11:56:00,50.9,49.0,29.24,SW,221,5.0,-999.0,94,-99.99,,,0.20,53,weatherlink.com 1.10,2013-12-18 11:56:00,
2013-12-18 12:12:00,51.1,49.0,29.23,SE,143,0.0,-999.0,93,-99.99,,,0.20,83,weatherlink.com 1.10,2013-12-18 12:12:00,
2013-12-18 12:27:00,51.3,49.0,29.22,SE,146,6.0,-999.0,93,-99.99,,,0.20,47,weatherlink.com 1.10,2013-12-18 12:27:00,
2013-12-18 12:42:00,51.5,50.0,29.20,SSE,162,2.0,-999.0,93,-99.99,,,0.20,53,weatherlink.com 1.10,2013-12-18 12:42:00,
2013-12-18 12:57:00,51.5,50.0,29.18,South,171,2.0,-999.0,93,-99.99,,,0.20,51,weatherlink.com 1.10,2013-12-18 12:57:00,
2013-12-18 13:12:00,51.4,50.0,29.16,East,99,2.0,-999.0,93,-99.99,,,0.20,32,weatherlink.com 1.10,2013-12-18 13:12:00,
2013-12-18 13:27:00,51.4,50.0,29.15,South,190,8.0,-999.0,93,-99.99,,,0.20,74,weatherlink.com 1.10,2013-12-18 13:27:00,
2013-12-18 13:42:00,51.4,50.0,29.14,SE,145,5.0,-999.0,93,-99.99,,,0.20,79,weatherlink.com 1.10,2013-12-18 13:42:00,
2013-12-18 13:57:00,51.6,49.0,29.12,SSW,206,7.0,-999.0,91,-99.99,,,0.20,84,weatherlink.com 1.10,2013-12-18 13:57:00,
2013-12-18 14:12:00,51.3,49.0,29.11,SW,230,5.0,-999.0,90,-99.99,,,0.20,25,weatherlink.com 1.10,2013-12-18 14:12:00,
2013-12-18 14:27:00,51.1,48.0,29.09,South,180,6.0,-999.0,88,-99.99,,,0.20,25,weatherlink.com 1.10,2013-12-18 14:27:00,
2013-12-18 14:42:00,51.1,47.0,29.07,South,179,6.0,-999.0,87,-99.99,,,0.20,28,weatherlink.com 1.10,2013-12-18 14:42:00,
2013-12-18 14:57:00,51.0,47.0,29.05,SE,145,7.0,-999.0,87,-99.99,,,0.20,19,weatherlink.com 1.10,2013-12-18 14:57:00,
2013-12-18 15:12:00,51.2,48.0,29.04,SE,140,13.0,-999.0,87,-99.99,,,0.20,9,weatherlink.com 1.10,2013-12-18 15:12:00,
2013-12-18 15:27:00,51.5,47.0,29.01,SE,135,11.0,-999.0,85,-99.99,,,0.20,0,weatherlink.com 1.10,2013-12-18 15:27:00,
2013-12-18 15:42:00,51.4,47.0,29.00,SSE,148,7.0,-999.0,86,-99.99,,,0.20,0,weatherlink.com 1.10,2013-12-18 15:42:00,
2013-12-18 15:57:00,51.5,47.0,28.98,ESE,111,14.0,-999.0,85,-99.99,,,0.20,0,weatherlink.com 1.10,2013-12-18 15:57:00,
2013-12-18 16:12:00,51.4,47.0,28.96,SE,132,4.0,-999.0,85,-99.99,,,0.20,0,weatherlink.com 1.10,2013-12-18 16:12:00,
2013-12-18 16:27:00,51.0,47.0,28.93,East,94,2.0,-999.0,86,-99.99,,,0.20,0,weatherlink.com 1.10,2013-12-18 16:27:00,
2013-12-18 16:42:00,50.5,48.0,28.89,SE,132,13.0,-999.0,90,-99.99,,,0.21,0,weatherlink.com 1.10,2013-12-18 16:42:00,
2013-12-18 16:58:00,50.0,48.0,28.87,ESE,108,7.0,-999.0,91,-99.99,,,0.22,0,weatherlink.com 1.10,2013-12-18 16:58:00,
2013-12-18 17:13:00,50.0,48.0,28.84,SE,129,11.0,-999.0,92,-99.99,,,0.22,0,weatherlink.com 1.10,2013-12-18 17:13:00,
2013-12-18 17:28:00,50.7,48.0,28.81,ESE,119,12.0,-999.0,91,-99.99,,,0.22,0,weatherlink.com 1.10,2013-12-18 17:28:00,
2013-12-18 17:43:00,51.1,49.0,28.77,SE,128,6.0,-999.0,91,-99.99,,,0.22,0,weatherlink.com 1.10,2013-12-18 17:43:00,
2013-12-18 17:58:00,51.1,49.0,28.74,SSE,159,9.0,-999.0,91,-99.99,,,0.22,0,weatherlink.com 1.10,2013-12-18 17:58:00,
2013-12-18 18:13:00,51.5,49.0,28.73,SSE,168,20.0,-999.0,92,-99.99,,,0.24,0,weatherlink.com 1.10,2013-12-18 18:13:00,
2013-12-18 18:28:00,51.5,49.0,28.71,SSE,153,18.0,-999.0,92,-99.99,,,0.30,0,weatherlink.com 1.10,2013-12-18 18:28:00,
2013-12-18 18:43:00,51.5,49.0,28.68,SE,145,17.0,-999.0,92,-99.99,,,0.32,0,weatherlink.com 1.10,2013-12-18 18:43:00,
2013-12-18 18:58:00,51.5,49.0,28.67,South,169,15.0,-999.0,92,-99.99,,,0.34,0,weatherlink.com 1.10,2013-12-18 18:58:00,
2013-12-18 19:13:00,52.1,49.0,28.66,WSW,245,4.0,-999.0,90,-99.99,,,0.34,0,weatherlink.com 1.10,2013-12-18 19:13:00,
2013-12-18 19:28:00,52.1,49.0,28.66,South,187,20.0,-999.0,88,-99.99,,,0.35,0,weatherlink.com 1.10,2013-12-18 19:28:00,
2013-12-18 19:43:00,47.8,46.0,28.66,South,186,12.0,-999.0,92,-99.99,,,0.40,0,weatherlink.com 1.10,2013-12-18 19:43:00,
2013-12-18 19:58:00,47.5,44.0,28.68,SSW,200,17.0,-999.0,88,-99.99,,,0.40,0,weatherlink.com 1.10,2013-12-18 19:58:00,
2013-12-18 20:13:00,47.3,44.0,28.66,South,183,14.0,-999.0,89,-99.99,,,0.40,0,weatherlink.com 1.10,2013-12-18 20:13:00,
2013-12-18 20:28:00,47.1,44.0,28.67,South,185,5.0,-999.0,87,-99.99,,,0.40,0,weatherlink.com 1.10,2013-12-18 20:28:00,
2013-12-18 20:43:00,47.2,43.0,28.68,South,173,28.0,-999.0,84,-99.99,,,0.40,0,weatherlink.com 1.10,2013-12-18 20:43:00,
2013-12-18 20:58:00,47.5,43.0,28.69,South,182,20.0,-999.0,83,-99.99,,,0.40,0,weatherlink.com 1.10,2013-12-18 20:58:00,
2013-12-18 21:13:00,47.1,42.0,28.69,SW,227,24.0,-999.0,82,-99.99,,,0.40,0,weatherlink.com 1.10,2013-12-18 21:13:00,
2013-12-18 21:28:00,47.2,42.0,28.69,South,170,31.0,-999.0,82,-99.99,,,0.40,0,weatherlink.com 1.10,2013-12-18 21:28:00,
2013-12-18 21:43:00,47.4,42.0,28.70,South,183,15.0,-999.0,80,-99.99,,,0.40,0,weatherlink.com 1.10,2013-12-18 21:43:00,
2013-12-18 21:58:00,47.3,41.0,28.70,South,172,14.0,-999.0,79,-99.99,,,0.40,0,weatherlink.com 1.10,2013-12-18 21:58:00,
2013-12-18 22:13:00,47.0,41.0,28.70,SSW,201,13.0,-999.0,79,-99.99,,,0.40,0,weatherlink.com 1.10,2013-12-18 22:13:00,
2013-12-18 22:28:00,47.0,40.0,28.71,SSW,206,28.0,-999.0,76,-99.99,,,0.40,0,weatherlink.com 1.10,2013-12-18 22:28:00,
2013-12-18 22:43:00,46.4,40.0,28.72,SSW,210,13.0,-999.0,77,-99.99,,,0.40,0,weatherlink.com 1.10,2013-12-18 22:43:00,
2013-12-18 22:58:00,45.8,39.0,28.73,WSW,254,26.0,-999.0,76,-99.99,,,0.40,0,weatherlink.com 1.10,2013-12-18 22:58:00,
2013-12-18 23:13:00,45.7,38.0,28.73,SSW,202,25.0,-999.0,75,-99.99,,,0.40,0,weatherlink.com 1.10,2013-12-18 23:13:00,
2013-12-18 23:28:00,44.9,39.0,28.74,SSW,204,9.0,-999.0,80,-99.99,,,0.40,0,weatherlink.com 1.10,2013-12-18 23:28:00,
2013-12-18 23:43:00,44.7,40.0,28.74,SSW,208,11.0,-999.0,82,-99.99,,,0.40,0,weatherlink.com 1.10,2013-12-18 23:43:00,
2013-12-18 23:58:00,44.3,39.0,28.74,SW,229,16.0,-999.0,82,-99.99,,,0.40,0,weatherlink.com 1.10,2013-12-18 23:58:00,